Cloud_Cover
100 100 100 100 100 100 100 100 100 100 100 100 100 100 100 100 100 100 100 95 97 100 99 95 98 100 100 100 100 100 100 100 45 100 94 62 97 9 19 51 10 32 61 78 77 97 68 10 48 90 79 39 53 100
100 100 100 100 100 100 100 100 100 100 100 100 100 100 100 100 100 100 100 100 100 100 100 100 86 82 100 100 100 100 100 100 100 63 96 90 96 90 50 95 20 20 7 49 75 21 100 100 100 85 99 95 21 53
100 100 100 100 100 100 100 100 100 100 100 100 100 100 100 100 100 100 100 100 100 100 100 100 100 100 100 100 100 92 28 66 34 21 17 66 100 41 98 37 76 55 59 75 77 47 100 100 100 61 62 99 57 100
100 100 100 100 100 100 100 100 100 100 100 100 100 100 100 100 100 100 100 100 100 100 100 100 90 100 100 100 100 94 97 76 97 35 99 100 100 6 27 26 100 100 90 33 76 85 63 32 66 99 100 91 57 94
100 100 100 100 100 100 100 100 100 100 100 100 100 100 100 100 100 100 100 100 100 100 92 100 100 100 100 100 100 100 100 96 100 99 100 80 12 19 61 67 100 100 50 27 73 90 99 100 100 100 100 34 77 98
100 100 100 100 100 100 100 100 100 100 100 100 100 100 100 100 100 100 100 100 100 100 100 100 100 100 100 100 100 100 100 100 97 88 88 20 71 60 100 76 100 96 93 5 7 42 93 100 100 91 60 99 100 64
100 100 100 100 100 100 100 100 100 100 100 100 100 100 100 100 89 42 91 97 100 100 100 94 42 44 76 100 100 100 100 100 100 97 95 100 100 94 100 93 97 46 68 30 66 99 95 100 59 34 91 70 30 6
100 100 100 100 100 100 100 100 100 100 100 100 100 100 100 100 100 68 72 65 61 72 89 100 86 98 100 100 97 100 100 100 100 100 100 100 70 98 100 98 40 67 72 82 100 90 88 57 9 86 68 93 100 91
100 100 100 100 100 100 100 100 100 100 100 100 100 100 100 100 100 100 100 100 97 87 100 100 100 98 97 100 100 100 100 100 100 100 100 100 100 96 100 100 100 95 100 100 100 100 8 26 48 81 87 100 93 29
100 100 100 100 100 100 100 100 100 100 100 100 100 100 100 100 100 100 100 100 100 100 100 100 100 100 100 100 100 100 100 100 100 100 100 100 100 90 100 100 97 77 100 100 100 99 84 100 100 81 99 19 33 6
100 100 100 100 96 90 100 90 100 100 100 100 100 100 100 100 100 100 100 100 100 100 100 95 100 100 100 100 100 100 100 100 100 82 100 100 76 100 100 100 81 100 100 100 100 92 100 100 78 5 5 5 5 6
100 100 100 100 100 100 100 100 100 100 100 100 100 100 100 100 100 100 100 100 100 100 100 100 100 100 100 100 100 100 100 100 99 90 100 100 96 100 100 97 97 92 96 84 10 15 8 21 7 5 5 5 5 5
100 100 100 100 100 100 100 100 100 100 100 100 100 100 100 100 100 100 100 100 100 100 100 100 100 100 100 100 100 100 100 100 98 100 90 100 100 79 77 68 90 88 58 5 5 5 5 5 5 5 5 5 27 5
91 100 100 100 100 100 100 100 100 100 100 100 100 100 100 100 100 100 100 100 100 100 100 100 100 100 100 100 100 100 100 99 100 99 99 99 100 92 78 99 100 67 5 6 5 5 5 5 5 91 71 10 16 53
5 99 100 100 100 100 100 100 100 100 100 100 100 100 100 100 100 100 100 100 100 100 100 100 100 100 100 100 100 100 100 100 92 95 100 100 100 100 100 96 50 9 66 54 25 5 37 54 100 66 48 66 99 46
5 31 100 100 100 100 100 100 100 100 100 100 100 100 100 100 100 100 100 100 100 100 100 100 100 100 100 100 100 100 100 100 100 100 100 100 100 100 82 21 61 97 90 69 16 79 100 90 53 92 100 100 74 88
6 93 28 100 100 100 100 100 100 100 100 100 100 100 100 100 100 100 100 100 100 100 100 100 100 100 100 100 100 100 100 100 100 100 100 100 89 65 56 64 99 100 100 98 100 100 76 99 100 100 80 6 65 80
91 76 77 100 100 100 100 100 100 100 100 100 100 100 100 100 100 100 100 100 100 100 100 100 100 100 100 100 100 100 100 100 100 100 100 100 100 100 100 100 100 99 100 100 100 100 100 100 86 14 14 52 63 85
98 99 98 100 100 100 98 98 92 99 100 100 100 100 100 100 100 100 100 100 100 100 100 100 100 100 100 100 100 100 100 100 100 100 100 100 100 99 97 100 100 100 100 100 100 100 100 92 5 13 85 72 100 100
100 100 100 100 100 100 99 90 60 100 93 97 100 100 100 100 100 100 100 100 100 100 100 100 100 100 100 100 100 100 100 100 100 100 100 100 100 100 100 100 100 100 100 100 100 99 24 5 35 71 83 100 100 98
100 100 100 100 100 100 85 64 80 34 99 82 88 86 100 100 100 100 100 100 100 100 100 100 100 100 100 100 100 100 100 100 100 100 94 94 100 100 100 100 100 100 100 88 18 3 5 5 59 100 100 100 81 99
100 100 100 100 100 98 91 92 96 100 80 96 76 79 88 100 100 100 100 100 100 100 100 100 100 100 100 100 100 99 100 100 91 95 96 100 100 99 100 100 100 62 4 29 5 20 31 58 95 100 100 100 100 100
100 100 100 99 100 100 100 89 100 100 92 98 100 91 86 89 100 92 100 73 22 93 100 100 100 100 100 100 100 100 100 100 100 100 99 100 100 100 82 18 5 44 19 5 43 73 95 98 100 100 100 100 100 100
100 100 100 83 66 93 99 100 100 100 99 79 83 78 97 97 88 84 40 25 7 13 62 42 19 5 55 89 93 99 100 100 94 78 64 25 5 31 60 52 5 5 30 98 100 80 86 97 100 100 100 100 100 100
100 100 100 91 67 91 100 100 91 68 82 94 100 84 78 75 90 91 90 18 62 78 26 6 4 1 2 5 8 56 29 28 5 5 5 6 6 9 60 49 92 58 51 97 100 100 97 81 100 100 100 100 96 99
100 100 100 100 100 100 100 100 82 82 100 70 79 80 73 88 60 18 18 98 100 71 98 91 53 20 19 68 62 71 86 81 74 36 14 38 57 87 96 98 26 12 96 100 89 96 100 100 100 100 100 100 94 93
100 100 100 85 98 97 100 100 100 99 42 20 65 76 69 22 5 59 79 79 96 99 100 100 100 86 82 79 90 94 100 100 100 100 88 41 24 89 100 100 100 100 100 100 100 100 100 100 100 100 100 100 100 100
100 100 100 100 100 100 90 14 10 6 5 5 22 50 5 5 51 99 100 99 100 99 98 98 99 91 98 100 100 100 100 100 93 60 12 19 98 98 96 100 100 100 100 100 100 100 100 100 100 100 100 100 100 100
100 100 100 100 100 100 97 74 15 8 5 5 30 32 90 97 100 100 98 100 100 100 97 98 98 99 100 100 100 100 100 100 100 96 100 100 100 100 100 100 100 100 100 100 100 100 100 100 100 100 100 100 100 100
100 100 90 96 99 100 92 58 97 97 10 33 46 24 58 100 100 100 100 100 99 100 100 100 100 100 100 100 100 100 100 100 100 100 100 100 100 100 100 100 100 100 100 100 100 100 100 100 100 100 100 100 100 100
100 100 99 88 89 99 100 85 94 84 78 85 87 66 99 100 100 100 100 100 100 100 100 100 100 100 100 100 100 100 99 100 100 100 100 100 100 100 100 100 100 100 100 100 100 100 100 100 100 100 100 100 100 100
100 100 99 96 88 100 73 85 88 81 88 35 93 83 99 100 100 100 100 100 100 100 100 100 100 100 100 100 100 100 100 100 100 100 100 100 100 100 100 100 100 100 100 100 100 100 100 100 100 100 100 100 100 100
94 93 93 87 90 60 35 4 2 4 44 87 100 100 100 100 100 100 100 100 100 100 100 100 100 100 100 100 100 100 100 100 100 100 100 100 100 100 100 100 100 100 100 100 100 100 100 100 100 100 100 100 100 100